K7JKM Weather Reports


time (UTC)temp
F
wind
direction
speed
knots
gust
knots
rain 1hr
in
rain 24hr
in
rain mn
in
humidity
%
barometer
mb
20260506003004 67 110 0.0 0.9 0.00 0.00 0.00 52 1015.8
20260506001522 68 270 0.0 0.9 0.00 0.00 0.00 50 1015.9
20260506000018 68 234 0.0 0.9 0.00 0.00 0.00 50 1015.9
20260505234531 69 152 0.0 2.6 0.00 0.00 0.00 48 1016.1
20260505233013 67 254 0.0 0.9 0.00 0.00 0.00 51 1016.3
20260505231511 67 63 0.0 0.9 0.00 0.00 0.00 50 1016.3
20260505230008 67 81 0.0 0.9 0.00 0.00 0.00 51 1016.4
20260505224506 65 292 0.0 1.7 0.00 0.00 0.00 52 1016.5
20260505223025 65 327 0.0 1.7 0.00 0.00 0.00 54 1016.7
20260505221523 64 297 0.0 0.9 0.00 0.00 0.00 56 1016.8
20260505220018 63 307 0.0 1.7 0.00 0.00 0.00 55 1016.9
20260505214529 62 28 0.0 0.9 0.00 0.00 0.00 57 1016.9
20260505213013 62 47 0.0 0.9 0.00 0.00 0.00 58 1017.0
20260505211513 62 335 0.0 1.7 0.00 0.00 0.00 57 1017.0
20260505210008 61 46 0.0 0.9 0.00 0.00 0.00 59 1017.0
20260505204525 62 308 0.0 0.0 0.00 0.00 0.00 58 1017.1
20260505203035 61 295 0.0 3.5 0.00 0.00 0.00 59 1017.2
20260505201529 61 293 0.0 0.9 0.00 0.00 0.00 58 1017.2
20260505200021 61 302 0.0 1.7 0.00 0.00 0.00 58 1017.2
20260505194518 61 304 0.0 1.7 0.00 0.00 0.00 57 1017.3
20260505193016 61 291 0.0 0.9 0.00 0.00 0.00 56 1017.3
20260505191527 62 72 0.0 0.0 0.00 0.00 0.00 56 1017.4
20260505190029 62 126 0.0 0.9 0.00 0.00 0.00 55 1017.4
20260505184527 61 169 0.0 0.9 0.00 0.00 0.00 57 1017.4
20260505183027 60 94 0.0 0.9 0.00 0.00 0.00 58 1017.3
20260505181525 60 123 0.0 0.9 0.00 0.00 0.00 58 1017.3
20260505180050 59 307 0.0 0.9 0.00 0.00 0.00 58 1017.3
20260505174544 59 271 0.0 0.9 0.00 0.00 0.00 58 1017.2
20260505173034 59 300 0.0 0.9 0.00 0.00 0.00 58 1017.2
20260505171523 59 121 0.0 0.0 0.00 0.00 0.00 58 1017.1
20260505170013 58 232 0.0 0.0 0.00 0.00 0.00 59 1017.0
20260505164511 58 204 0.0 0.0 0.00 0.00 0.00 59 1016.9
20260505163009 57 148 0.0 0.0 0.00 0.00 0.00 60 1016.8
20260505161506 57 131 0.0 0.0 0.00 0.00 0.00 60 1016.8
20260505153020 55 293 0.0 0.0 0.00 0.00 0.00 62 1016.7
20260505151519 55 293 0.0 0.0 0.00 0.00 0.00 62 1016.7
20260505124514 53 136 0.0 0.0 0.00 0.00 0.00 64 1015.7
20260505123012 53 167 0.0 0.0 0.00 0.00 0.00 64 1015.6
20260505121508 53 119 0.0 0.0 0.00 0.00 0.00 64 1015.7
20260505120031 53 184 0.0 0.0 0.00 0.00 0.00 64 1015.6
20260505114526 53 212 0.0 0.9 0.00 0.00 0.00 65 1015.6
20260505113024 53 207 0.0 0.9 0.00 0.00 0.00 65 1015.5
20260505111521 53 195 0.0 0.0 0.00 0.00 0.00 65 1015.4
20260505101534 53 139 0.0 0.0 0.00 0.00 0.00 65 1015.2
20260505100025 53 171 0.0 0.0 0.00 0.00 0.00 66 1015.2
20260505094503 52 162 0.0 0.9 0.00 0.00 0.00 67 1015.1
20260505093008 52 148 0.0 0.0 0.00 0.00 0.00 69 1015.0
20260505091504 51 141 0.0 0.0 0.00 0.00 0.00 70 1015.0
20260505090006 50 143 0.0 0.0 0.00 0.00 0.00 69 1014.9
20260505084505 51 143 0.0 0.0 0.00 0.00 0.00 68 1014.9
20260505083008 51 143 0.0 0.0 0.00 0.00 0.00 68 1015.0
20260505081507 51 143 0.0 0.0 0.00 0.00 0.00 68 1014.9
20260505080006 51 150 0.0 0.0 0.00 0.00 0.00 68 1014.7
20260505074506 51 185 0.0 0.0 0.00 0.00 0.00 67 1014.6
20260505073008 51 172 0.0 0.9 0.00 0.00 0.00 67 1014.5
20260505071508 51 174 0.0 0.0 0.00 0.00 0.00 67 1014.4
20260505070011 52 214 0.0 0.0 0.00 0.00 0.00 67 1014.2
20260505064508 52 215 0.0 0.0 0.00 0.00 0.00 67 1014.2
20260505063011 53 214 0.0 0.0 0.00 0.00 0.00 67 1014.1
20260505061511 53 214 0.0 0.0 0.00 0.00 0.00 66 1014.0
20260505060008 53 214 0.0 0.0 0.00 0.00 0.00 66 1014.1
20260505054512 54 176 0.0 3.5 0.00 0.00 0.00 66 1014.0
20260505053012 54 248 0.0 2.6 0.00 0.00 0.00 65 1013.9
20260505051530 55 162 0.0 2.6 0.00 0.00 0.00 65 1013.8
20260505041514 56 166 0.0 0.9 0.00 0.00 0.00 62 1012.8
20260505040016 57 309 0.0 2.6 0.00 0.00 0.00 62 1012.5
20260505034516 57 236 0.0 4.3 0.00 0.00 0.00 61 1012.3
20260505033016 58 346 0.9 7.0 0.00 0.00 0.00 60 1012.2
20260505031518 59 302 0.0 4.3 0.00 0.00 0.00 58 1012.0
20260505030020 61 355 0.0 4.3 0.00 0.00 0.00 57 1011.8
20260505024521 63 4 0.0 4.3 0.00 0.00 0.00 54 1011.6
20260505023015 64 311 0.9 6.1 0.00 0.00 0.00 54 1011.4
20260505021518 66 311 0.9 3.5 0.00 0.00 0.00 52 1011.4
20260505020008 67 301 0.0 3.5 0.00 0.00 0.00 52 1011.3
20260505014507 68 295 0.0 6.1 0.00 0.00 0.00 51 1011.4
20260505013006 69 219 0.0 5.2 0.00 0.00 0.00 49 1011.4
20260505011504 71 359 0.0 5.2 0.00 0.00 0.00 47 1011.4
20260505010003 73 297 0.0 7.0 0.00 0.00 0.00 47 1011.5
20260505004507 76 134 0.9 4.3 0.00 0.00 0.00 42 1011.4